When you browse on this site, cookies collect data to enhance your experience and personalize the content and advertising you see.
Visit our Privacy Policy to learn more. By continuing to use the site, you agree to this use of cookies and data.
  • In Netherlands
  • List of Countries
  • For 7 days
  • Water Temperature
  • Weather Map
  • Weather Widgets
  • user-avatar
    Login

    Hourly Weather Mol

    Today, 3 April, Friday

    Time Temperature Precipitation Wind Pressure Humidity
    00:00 +6°C° 0.1 mm 4 mps 756 mmHg 88%
    01:00 +6°C° 0 mm 4 mps 756 mmHg 89%
    02:00 +5°C° 0 mm 3 mps 757 mmHg 91%
    03:00 +5°C° 0 mm 3 mps 757 mmHg 92%
    04:00 +5°C° 0 mm 3 mps 757 mmHg 91%
    05:00 +4°C° 0 mm 3 mps 757 mmHg 90%
    06:00 +4°C° 0 mm 3 mps 758 mmHg 88%
    07:00 +6°C° 0 mm 4 mps 758 mmHg 80%
    08:00 +7°C° 0 mm 4 mps 758 mmHg 71%
    09:00 +8°C° 0 mm 5 mps 759 mmHg 62%
    10:00 +9°C° 0 mm 5 mps 759 mmHg 59%
    11:00 +9°C° 0 mm 5 mps 759 mmHg 56%
    12:00 +10°C° 0 mm 5 mps 760 mmHg 53%
    13:00 +10°C° 0 mm 5 mps 760 mmHg 52%
    14:00 +9°C° 0 mm 5 mps 760 mmHg 51%
    15:00 +9°C° 0 mm 5 mps 760 mmHg 50%
    16:00 +8°C° 0 mm 4 mps 760 mmHg 55%
    17:00 +8°C° 0 mm 3 mps 760 mmHg 59%
    18:00 +7°C° 0 mm 3 mps 761 mmHg 63%
    19:00 +6°C° 0 mm 2 mps 761 mmHg 66%
    20:00 +5°C° 0 mm 2 mps 762 mmHg 68%
    21:00 +5°C° 0 mm 1 mps 762 mmHg 70%
    22:00 +4°C° 0 mm 1 mps 763 mmHg 70%
    23:00 +3°C° 0 mm 0 mps 763 mmHg 70%

    Tomorrow, 4 April, Saturday

    Time Temperature Precipitation Wind Pressure Humidity
    00:00 +3°C° 0 mm 0 mps 764 mmHg 70%
    01:00 +3°C° 0 mm 0 mps 764 mmHg 71%
    02:00 +2°C° 0 mm 0 mps 764 mmHg 72%
    03:00 +3°C° 0 mm 1 mps 764 mmHg 73%
    04:00 +3°C° 0 mm 1 mps 764 mmHg 73%
    05:00 +3°C° 0 mm 1 mps 764 mmHg 73%
    06:00 +3°C° 0 mm 1 mps 765 mmHg 73%
    07:00 +5°C° 0 mm 1 mps 765 mmHg 65%
    08:00 +6°C° 0 mm 2 mps 765 mmHg 57%
    09:00 +8°C° 0 mm 2 mps 765 mmHg 49%
    10:00 +10°C° 0 mm 2 mps 765 mmHg 46%
    11:00 +12°C° 0 mm 2 mps 765 mmHg 42%
    12:00 +13°C° 0 mm 2 mps 765 mmHg 39%
    13:00 +14°C° 0 mm 2 mps 764 mmHg 40%
    14:00 +14°C° 0 mm 2 mps 764 mmHg 41%
    15:00 +15°C° 0 mm 2 mps 764 mmHg 42%
    16:00 +13°C° 0 mm 2 mps 764 mmHg 48%
    17:00 +12°C° 0 mm 2 mps 764 mmHg 55%
    18:00 +10°C° 0 mm 2 mps 764 mmHg 61%
    19:00 +9°C° 0 mm 2 mps 764 mmHg 62%
    20:00 +8°C° 0 mm 3 mps 764 mmHg 63%
    21:00 +7°C° 0 mm 3 mps 764 mmHg 64%
    22:00 +7°C° 0 mm 3 mps 765 mmHg 67%
    23:00 +7°C° 0 mm 3 mps 765 mmHg 70%

    Day after tomorrow, 5 April, Sunday

    Time Temperature Precipitation Wind Pressure Humidity
    00:00 +5°C° 0 mm 3 mps 765 mmHg 73%
    01:00 +5°C° 0 mm 3 mps 764 mmHg 74%
    02:00 +5°C° 0 mm 3 mps 764 mmHg 75%
    03:00 +4°C° 0 mm 3 mps 764 mmHg 75%
    04:00 +5°C° 0 mm 3 mps 764 mmHg 75%
    05:00 +5°C° 0 mm 3 mps 763 mmHg 76%
    06:00 +5°C° 0 mm 3 mps 763 mmHg 76%
    07:00 +7°C° 0 mm 4 mps 763 mmHg 69%
    08:00 +11°C° 0 mm 4 mps 762 mmHg 62%
    09:00 +14°C° 0 mm 5 mps 762 mmHg 54%
    10:00 +15°C° 0 mm 5 mps 762 mmHg 51%
    11:00 +17°C° 0 mm 5 mps 762 mmHg 47%
    12:00 +20°C° 0 mm 5 mps 761 mmHg 44%
    13:00 +20°C° 0 mm 5 mps 761 mmHg 44%
    14:00 +20°C° 0 mm 5 mps 760 mmHg 45%
    15:00 +21°C° 0 mm 5 mps 760 mmHg 45%
    16:00 +19°C° 0 mm 4 mps 760 mmHg 51%
    17:00 +18°C° 0 mm 4 mps 760 mmHg 58%
    18:00 +16°C° 0 mm 3 mps 760 mmHg 65%
    19:00 +14°C° 0 mm 3 mps 760 mmHg 66%
    20:00 +13°C° 0 mm 4 mps 760 mmHg 68%
    21:00 +12°C° 0 mm 4 mps 760 mmHg 70%
    22:00 +12°C° 0 mm 4 mps 760 mmHg 71%
    23:00 +11°C° 0 mm 4 mps 760 mmHg 72%

    6 April, Monday

    Time Temperature Precipitation Wind Pressure Humidity
    00:00 +11°C° 0 mm 4 mps 760 mmHg 73%
    01:00 +10°C° 0 mm 4 mps 759 mmHg 72%
    02:00 +10°C° 0 mm 4 mps 759 mmHg 70%
    03:00 +10°C° 0 mm 4 mps 759 mmHg 69%
    04:00 +10°C° 0 mm 4 mps 759 mmHg 67%
    05:00 +9°C° 0 mm 5 mps 759 mmHg 66%
    06:00 +9°C° 0 mm 5 mps 759 mmHg 64%
    07:00 +12°C° 0 mm 5 mps 760 mmHg 58%
    08:00 +13°C° 0 mm 6 mps 760 mmHg 52%
    09:00 +15°C° 0 mm 6 mps 760 mmHg 47%
    10:00 +16°C° 0 mm 6 mps 760 mmHg 45%
    11:00 +17°C° 0 mm 7 mps 760 mmHg 43%
    12:00 +18°C° 0 mm 7 mps 760 mmHg 41%
    13:00 +20°C° 0 mm 7 mps 760 mmHg 43%
    14:00 +20°C° 0 mm 7 mps 760 mmHg 45%
    15:00 +20°C° 0 mm 7 mps 761 mmHg 47%
    16:00 +16°C° 0.1 mm 6 mps 761 mmHg 56%
    17:00 +14°C° 0.1 mm 6 mps 762 mmHg 65%
    18:00 +11°C° 0.1 mm 6 mps 762 mmHg 74%
    19:00 +12°C° 0.2 mm 5 mps 763 mmHg 79%
    20:00 +11°C° 0.2 mm 4 mps 764 mmHg 84%
    21:00 +11°C° 0.2 mm 4 mps 765 mmHg 89%
    22:00 +10°C° 0 mm 3 mps 765 mmHg 90%
    23:00 +10°C° 0 mm 3 mps 766 mmHg 90%

    7 April, Tuesday

    Time Temperature Precipitation Wind Pressure Humidity
    00:00 +10°C° 0 mm 3 mps 767 mmHg 90%
    01:00 +9°C° 0 mm 3 mps 767 mmHg 92%
    02:00 +8°C° 0 mm 3 mps 768 mmHg 94%
    03:00 +8°C° 0 mm 2 mps 768 mmHg 95%
    04:00 +8°C° 0 mm 2 mps 769 mmHg 94%
    05:00 +7°C° 0 mm 2 mps 769 mmHg 93%
    06:00 +7°C° 0 mm 2 mps 770 mmHg 92%
    07:00 +9°C° 0 mm 2 mps 771 mmHg 82%
    08:00 +12°C° 0 mm 1 mps 771 mmHg 73%
    09:00 +14°C° 0 mm 1 mps 771 mmHg 63%
    10:00 +15°C° 0 mm 1 mps 772 mmHg 56%
    11:00 +18°C° 0 mm 1 mps 772 mmHg 50%
    12:00 +19°C° 0 mm 1 mps 772 mmHg 44%
    13:00 +19°C° 0 mm 1 mps 772 mmHg 43%
    14:00 +19°C° 0 mm 1 mps 772 mmHg 41%
    15:00 +18°C° 0 mm 2 mps 772 mmHg 40%
    16:00 +17°C° 0 mm 2 mps 772 mmHg 45%
    17:00 +16°C° 0 mm 2 mps 772 mmHg 51%
    18:00 +14°C° 0 mm 2 mps 772 mmHg 56%
    19:00 +13°C° 0 mm 2 mps 772 mmHg 59%
    20:00 +12°C° 0 mm 2 mps 773 mmHg 62%
    21:00 +10°C° 0 mm 2 mps 773 mmHg 64%
    22:00 +10°C° 0 mm 2 mps 773 mmHg 67%
    23:00 +9°C° 0 mm 2 mps 773 mmHg 69%

    8 April, Wednesday

    Time Temperature Precipitation Wind Pressure Humidity
    00:00 +9°C° 0 mm 2 mps 773 mmHg 71%
    01:00 +8°C° 0 mm 2 mps 773 mmHg 76%
    02:00 +8°C° 0 mm 2 mps 773 mmHg 82%
    03:00 +8°C° 0 mm 2 mps 773 mmHg 87%
    04:00 +8°C° 0 mm 2 mps 772 mmHg 88%
    05:00 +8°C° 0 mm 2 mps 772 mmHg 90%
    06:00 +8°C° 0 mm 2 mps 772 mmHg 91%
    07:00 +10°C° 0 mm 2 mps 772 mmHg 82%
    08:00 +13°C° 0 mm 3 mps 772 mmHg 74%
    09:00 +16°C° 0 mm 3 mps 771 mmHg 65%
    10:00 +17°C° 0 mm 3 mps 771 mmHg 61%
    11:00 +19°C° 0 mm 3 mps 770 mmHg 56%
    12:00 +20°C° 0 mm 3 mps 770 mmHg 52%
    13:00 +21°C° 0 mm 3 mps 770 mmHg 50%
    14:00 +21°C° 0 mm 3 mps 769 mmHg 48%
    15:00 +23°C° 0 mm 2 mps 769 mmHg 47%
    16:00 +20°C° 0 mm 2 mps 768 mmHg 52%
    17:00 +19°C° 0 mm 2 mps 768 mmHg 57%
    18:00 +18°C° 0 mm 2 mps 768 mmHg 62%
    19:00 +17°C° 0 mm 2 mps 768 mmHg 65%
    20:00 +16°C° 0 mm 2 mps 768 mmHg 67%
    21:00 +14°C° 0 mm 2 mps 768 mmHg 70%
    22:00 +14°C° 0 mm 2 mps 768 mmHg 73%
    23:00 +13°C° 0 mm 2 mps 768 mmHg 76%
    Show more